| time (UTC) | temp C | wind direction | speed KPH | gust KPH | rain 1hr cm | rain 24hr cm | rain mn cm | humidity % | barometer mb |
| 20260506051307 | 7 | 317 | 4.8 | 12.9 | 0.23 | 0.15 | 0.15 | 89 | 1008.5 |
| 20260506050805 | 7 | 323 | 3.2 | 9.7 | 0.18 | 0.13 | 0.13 | 89 | 1008.7 |
| 20260506050302 | 7 | 320 | 6.4 | 12.9 | 0.13 | 0.10 | 0.10 | 89 | 1008.7 |
| 20260506044752 | 7 | 315 | 0.0 | 6.4 | 0.05 | 0.08 | 0.08 | 89 | 1008.2 |
| 20260506044250 | 7 | 334 | 3.2 | 6.4 | 0.05 | 0.05 | 0.05 | 89 | 1008.2 |
| 20260506043747 | 7 | 332 | 6.4 | 8.0 | 0.00 | 0.05 | 0.05 | 89 | 1008.2 |
| 20260506043244 | 7 | 291 | 3.2 | 6.4 | 0.05 | 0.05 | 0.05 | 89 | 1008.4 |
| 20260506042743 | 7 | 309 | 3.2 | 6.4 | 0.13 | 0.05 | 0.05 | 89 | 1008.4 |
| 20260506042241 | 7 | 272 | 3.2 | 4.8 | 0.13 | 0.05 | 0.05 | 89 | 1008.3 |
| 20260506041739 | 7 | 305 | 3.2 | 6.4 | 0.13 | 0.03 | 0.03 | 89 | 1008.3 |
| 20260506041236 | 7 | 335 | 4.8 | 8.0 | 0.13 | 0.03 | 0.03 | 89 | 1008.4 |
| 20260506040733 | 7 | 313 | 3.2 | 6.4 | 0.05 | 0.00 | 0.00 | 89 | 1008.4 |
| 20260506040231 | 7 | 299 | 1.6 | 4.8 | 0.13 | 0.00 | 0.00 | 89 | 1008.3 |
| 20260506035727 | 7 | 322 | 0.0 | 8.0 | 0.23 | 2.36 | 2.36 | 89 | 1008.3 |
| 20260506035224 | 7 | 273 | 1.6 | 8.0 | 0.23 | 2.31 | 2.31 | 89 | 1008.4 |
| 20260506034721 | 7 | 304 | 3.2 | 8.0 | 0.30 | 2.31 | 2.31 | 89 | 1008.6 |
| 20260506034218 | 7 | 13 | 1.6 | 9.7 | 0.23 | 2.29 | 2.29 | 89 | 1008.5 |
| 20260506033715 | 7 | 323 | 4.8 | 12.9 | 0.13 | 2.26 | 2.26 | 89 | 1008.2 |
| 20260506033212 | 8 | 330 | 9.7 | 12.9 | 0.13 | 2.24 | 2.24 | 89 | 1008.3 |
| 20260506032709 | 7 | 319 | 0.0 | 8.0 | 0.13 | 2.24 | 2.24 | 89 | 1008.3 |
| 20260506032206 | 8 | 283 | 0.0 | 6.4 | 0.13 | 2.21 | 2.21 | 89 | 1008.4 |
| 20260506031703 | 8 | 250 | 4.8 | 6.4 | 0.18 | 2.21 | 2.21 | 89 | 1008.5 |
| 20260506031200 | 8 | 235 | 3.2 | 4.8 | 0.18 | 2.21 | 2.21 | 89 | 1008.5 |
| 20260506030658 | 8 | 86 | 1.6 | 3.2 | 0.18 | 2.18 | 2.18 | 89 | 1008.6 |
| 20260506030155 | 8 | 239 | 1.6 | 3.2 | 0.36 | 2.16 | 2.16 | 89 | 1008.6 |
| 20260506025652 | 8 | 118 | 0.0 | 3.2 | 0.30 | 2.13 | 2.13 | 89 | 1008.5 |
| 20260506025148 | 8 | 189 | 0.0 | 3.2 | 0.30 | 2.11 | 2.11 | 89 | 1008.6 |
| 20260506024646 | 8 | 224 | 0.0 | 1.6 | 0.23 | 2.08 | 2.08 | 89 | 1008.5 |
| 20260506024142 | 8 | 130 | 0.0 | 3.2 | 0.36 | 2.06 | 2.06 | 89 | 1008.5 |
| 20260506023638 | 8 | 160 | 4.8 | 6.4 | 0.43 | 2.03 | 2.03 | 89 | 1008.5 |
| 20260506023136 | 8 | 170 | 3.2 | 4.8 | 0.43 | 2.01 | 2.01 | 89 | 1008.7 |
| 20260506022633 | 8 | 194 | 0.0 | 4.8 | 0.30 | 1.96 | 1.96 | 89 | 1008.8 |
| 20260506022130 | 8 | 184 | 3.2 | 4.8 | 0.30 | 1.93 | 1.93 | 89 | 1008.9 |
| 20260506021628 | 8 | 214 | 1.6 | 4.8 | 0.30 | 1.91 | 1.91 | 89 | 1008.9 |
| 20260506021125 | 8 | 134 | 0.0 | 3.2 | 0.30 | 1.88 | 1.88 | 89 | 1008.4 |
| 20260506020622 | 8 | 224 | 0.0 | 8.0 | 0.23 | 1.83 | 1.83 | 89 | 1008.7 |
| 20260506020120 | 8 | 255 | 4.8 | 6.4 | 0.23 | 1.83 | 1.83 | 89 | 1008.6 |
| 20260506015617 | 8 | 213 | 3.2 | 6.4 | 0.23 | 1.80 | 1.80 | 89 | 1008.5 |
| 20260506015114 | 8 | 345 | 0.0 | 8.0 | 0.30 | 1.78 | 1.78 | 89 | 1008.6 |
| 20260506014612 | 8 | 271 | 4.8 | 8.0 | 0.18 | 1.75 | 1.75 | 89 | 1008.7 |
| 20260506014106 | 8 | 258 | 1.6 | 6.4 | 0.18 | 1.73 | 1.73 | 89 | 1008.6 |
| 20260506013605 | 8 | 0 | 0.0 | 3.2 | 0.18 | 1.73 | 1.73 | 89 | 1008.4 |
| 20260506013102 | 8 | 336 | 4.8 | 6.4 | 0.18 | 1.70 | 1.70 | 89 | 1008.4 |
| 20260506012558 | 8 | 329 | 3.2 | 4.8 | 0.30 | 1.70 | 1.70 | 89 | 1008.3 |
| 20260506012055 | 8 | 19 | 0.0 | 3.2 | 0.30 | 1.68 | 1.68 | 89 | 1008.1 |
| 20260506011553 | 8 | 319 | 4.8 | 6.4 | 0.23 | 1.65 | 1.65 | 89 | 1008.3 |
| 20260506011048 | 8 | 212 | 0.0 | 1.6 | 0.23 | 1.63 | 1.63 | 89 | 1008.2 |
| 20260506010542 | 8 | 15 | 1.6 | 3.2 | 0.23 | 1.60 | 1.60 | 89 | 1008.2 |
| 20260506010038 | 8 | 40 | 0.0 | 3.2 | 0.23 | 1.57 | 1.57 | 89 | 1007.9 |
| 20260506005535 | 8 | 354 | 1.6 | 4.8 | 0.18 | 1.55 | 1.55 | 89 | 1008.1 |
| 20260506005031 | 8 | 331 | 0.0 | 4.8 | 0.13 | 1.55 | 1.55 | 89 | 1008.2 |
| 20260506004529 | 8 | 347 | 0.0 | 3.2 | 0.18 | 1.52 | 1.52 | 89 | 1008.0 |
| 20260506004025 | 8 | 65 | 0.0 | 3.2 | 0.18 | 1.50 | 1.50 | 88 | 1007.9 |
| 20260506003522 | 8 | 359 | 3.2 | 6.4 | 0.23 | 1.50 | 1.50 | 88 | 1007.7 |
| 20260506003018 | 8 | 1 | 1.6 | 4.8 | 0.18 | 1.47 | 1.47 | 89 | 1007.9 |
| 20260506002514 | 8 | 337 | 3.2 | 6.4 | 0.13 | 1.45 | 1.45 | 88 | 1007.9 |
| 20260506002010 | 8 | 21 | 3.2 | 4.8 | 0.05 | 1.45 | 1.45 | 89 | 1007.8 |
| 20260506001507 | 8 | 15 | 1.6 | 4.8 | 0.05 | 1.45 | 1.45 | 89 | 1008.0 |
| 20260506001004 | 8 | 48 | 0.0 | 3.2 | 0.13 | 1.42 | 1.42 | 89 | 1007.9 |
| 20260506000501 | 8 | 32 | 0.0 | 3.2 | 0.13 | 1.42 | 1.42 | 88 | 1007.9 |
| 20260505235958 | 8 | 52 | 0.0 | 3.2 | 0.13 | 1.42 | 1.42 | 88 | 1007.9 |
| 20260505235456 | 8 | 14 | 0.0 | 4.8 | 0.18 | 1.40 | 1.40 | 88 | 1007.8 |
| 20260505234953 | 8 | 350 | 4.8 | 6.4 | 0.13 | 1.37 | 1.37 | 88 | 1008.1 |
| 20260505234450 | 8 | 317 | 4.8 | 8.0 | 0.13 | 1.37 | 1.37 | 88 | 1008.1 |
| 20260505233947 | 8 | 327 | 0.0 | 6.4 | 0.13 | 1.37 | 1.37 | 88 | 1008.1 |
| 20260505233444 | 8 | 320 | 6.4 | 8.0 | 0.13 | 1.35 | 1.35 | 88 | 1008.1 |
| 20260505232942 | 8 | 310 | 3.2 | 8.0 | 0.13 | 1.35 | 1.35 | 88 | 1008.3 |
| 20260505232440 | 8 | 295 | 3.2 | 9.7 | 0.13 | 1.32 | 1.32 | 88 | 1008.1 |
| 20260505231937 | 8 | 331 | 4.8 | 11.3 | 0.13 | 1.32 | 1.32 | 88 | 1007.9 |
| 20260505231434 | 8 | 318 | 6.4 | 14.5 | 0.13 | 1.32 | 1.32 | 89 | 1008.0 |
| 20260505230932 | 9 | 314 | 14.5 | 14.5 | 0.13 | 1.30 | 1.30 | 89 | 1007.8 |
| 20260505230429 | 9 | 322 | 12.9 | 17.7 | 0.13 | 1.30 | 1.30 | 89 | 1007.7 |
| 20260505225925 | 9 | 331 | 6.4 | 11.3 | 0.13 | 1.27 | 1.27 | 89 | 1007.5 |
| 20260505225423 | 9 | 15 | 4.8 | 14.5 | 0.18 | 1.27 | 1.27 | 89 | 1007.5 |
| 20260505224918 | 9 | 347 | 4.8 | 16.1 | 0.23 | 1.27 | 1.27 | 89 | 1007.6 |
| 20260505224415 | 8 | 7 | 4.8 | 14.5 | 0.18 | 1.24 | 1.24 | 89 | 1007.6 |
| 20260505223912 | 9 | 332 | 11.3 | 14.5 | 0.13 | 1.22 | 1.22 | 89 | 1007.7 |
| 20260505223409 | 9 | 8 | 3.2 | 14.5 | 0.13 | 1.19 | 1.19 | 89 | 1007.8 |
| 20260505222906 | 9 | 359 | 3.2 | 8.0 | 0.18 | 1.19 | 1.19 | 88 | 1007.6 |
| 20260505222402 | 9 | 40 | 0.0 | 9.7 | 0.18 | 1.19 | 1.19 | 88 | 1007.5 |
| 20260505221858 | 9 | 5 | 1.6 | 6.4 | 0.13 | 1.17 | 1.17 | 88 | 1007.4 |
| 20260505221355 | 9 | 357 | 3.2 | 8.0 | 0.05 | 1.14 | 1.14 | 88 | 1007.6 |
| 20260505220853 | 9 | 26 | 1.6 | 6.4 | 0.05 | 1.14 | 1.14 | 88 | 1007.6 |
| 20260505220350 | 9 | 29 | 6.4 | 9.7 | 0.00 | 1.14 | 1.14 | 88 | 1007.3 |
| 20260505215847 | 9 | 4 | 4.8 | 6.4 | 0.05 | 1.14 | 1.14 | 88 | 1007.5 |
| 20260505215345 | 9 | 357 | 6.4 | 11.3 | 0.13 | 1.14 | 1.14 | 88 | 1007.5 |
| 20260505214843 | 9 | 3 | 4.8 | 11.3 | 0.05 | 1.12 | 1.12 | 88 | 1007.5 |
| 20260505214340 | 9 | 2 | 3.2 | 12.9 | 0.05 | 1.12 | 1.12 | 88 | 1007.6 |
| 20260505213837 | 10 | 328 | 12.9 | 16.1 | 0.18 | 1.09 | 1.09 | 88 | 1007.6 |
| 20260505213335 | 10 | 310 | 1.6 | 4.8 | 0.30 | 1.09 | 1.09 | 89 | 1007.6 |
| 20260505212831 | 10 | 280 | 4.8 | 8.0 | 0.30 | 1.07 | 1.07 | 88 | 1007.6 |
| 20260505212328 | 10 | 334 | 4.8 | 12.9 | 0.23 | 1.04 | 1.04 | 88 | 1007.6 |
| 20260505211824 | 10 | 313 | 6.4 | 11.3 | 0.30 | 1.02 | 1.02 | 88 | 1007.6 |
| 20260505211322 | 10 | 337 | 8.0 | 17.7 | 0.36 | 0.99 | 0.99 | 88 | 1007.4 |
| 20260505210818 | 10 | 307 | 8.0 | 11.3 | 0.53 | 0.97 | 0.97 | 89 | 1007.3 |
| 20260505210315 | 10 | 294 | 4.8 | 14.5 | 0.48 | 0.91 | 0.91 | 88 | 1007.3 |
| 20260505205812 | 10 | 321 | 8.0 | 12.9 | 0.43 | 0.89 | 0.89 | 88 | 1007.4 |
| 20260505205310 | 10 | 311 | 3.2 | 9.7 | 0.43 | 0.84 | 0.84 | 88 | 1007.2 |
| 20260505204807 | 10 | 311 | 4.8 | 12.9 | 0.48 | 0.81 | 0.81 | 87 | 1007.3 |
| 20260505204305 | 10 | 310 | 8.0 | 12.9 | 0.48 | 0.76 | 0.76 | 87 | 1007.1 |
| 20260505203802 | 10 | 13 | 4.8 | 12.9 | 0.43 | 0.71 | 0.71 | 87 | 1007.4 |
| 20260505203259 | 10 | 315 | 6.4 | 11.3 | 0.30 | 0.69 | 0.69 | 87 | 1007.3 |
| 20260505202754 | 10 | 313 | 8.0 | 17.7 | 0.18 | 0.66 | 0.66 | 86 | 1007.2 |
| 20260505202251 | 10 | 303 | 4.8 | 19.3 | 0.05 | 0.61 | 0.61 | 86 | 1007.1 |
| 20260505201747 | 10 | 309 | 8.0 | 16.1 | 0.18 | 0.61 | 0.61 | 86 | 1007.1 |
| 20260505201245 | 10 | 324 | 11.3 | 17.7 | 0.18 | 0.61 | 0.61 | 87 | 1007.2 |
| 20260505200743 | 10 | 333 | 17.7 | 24.1 | 0.13 | 0.58 | 0.58 | 86 | 1007.1 |
| 20260505200240 | 10 | 311 | 14.5 | 16.1 | 0.13 | 0.56 | 0.56 | 86 | 1006.9 |
| 20260505195735 | 10 | 309 | 3.2 | 24.1 | 0.13 | 0.56 | 0.56 | 86 | 1007.3 |
| 20260505195233 | 10 | 313 | 4.8 | 12.9 | 0.13 | 0.56 | 0.56 | 87 | 1007.4 |
| 20260505194730 | 10 | 313 | 8.0 | 17.7 | 0.05 | 0.53 | 0.53 | 86 | 1007.6 |
| 20260505194226 | 10 | 287 | 9.7 | 19.3 | 0.13 | 0.51 | 0.51 | 87 | 1007.7 |
| 20260505193722 | 10 | 306 | 4.8 | 16.1 | 0.23 | 0.51 | 0.51 | 87 | 1007.7 |
| 20260505193220 | 11 | 298 | 8.0 | 17.7 | 0.23 | 0.51 | 0.51 | 87 | 1007.8 |
| 20260505192718 | 11 | 306 | 6.4 | 12.9 | 0.18 | 0.46 | 0.46 | 87 | 1007.9 |
| 20260505192215 | 11 | 278 | 6.4 | 14.5 | 0.23 | 0.46 | 0.46 | 87 | 1008.1 |
| 20260505191714 | 11 | 287 | 4.8 | 12.9 | 0.23 | 0.43 | 0.43 | 87 | 1008.0 |
| 20260505191212 | 11 | 269 | 8.0 | 17.7 | 0.23 | 0.41 | 0.41 | 86 | 1008.1 |
| 20260505190708 | 11 | 285 | 6.4 | 16.1 | 0.23 | 0.38 | 0.38 | 86 | 1007.9 |
| 20260505190207 | 11 | 272 | 6.4 | 14.5 | 0.18 | 0.36 | 0.36 | 86 | 1007.8 |
| 20260505185704 | 11 | 281 | 4.8 | 11.3 | 0.30 | 0.36 | 0.36 | 85 | 1007.7 |
| 20260505185201 | 11 | 276 | 9.7 | 12.9 | 0.30 | 0.33 | 0.33 | 85 | 1007.6 |
| 20260505184657 | 11 | 266 | 12.9 | 12.9 | 0.18 | 0.30 | 0.30 | 83 | 1007.9 |
| 20260505184154 | 11 | 281 | 8.0 | 14.5 | 0.05 | 0.28 | 0.28 | 84 | 1007.7 |
| 20260505183651 | 11 | 286 | 9.7 | 16.1 | 0.05 | 0.28 | 0.28 | 83 | 1007.4 |
| 20260505183149 | 11 | 275 | 9.7 | 14.5 | 0.00 | 0.25 | 0.25 | 82 | 1007.4 |
| 20260505182645 | 11 | 267 | 8.0 | 14.5 | 0.05 | 0.25 | 0.25 | 81 | 1007.3 |
| 20260505182142 | 11 | 257 | 8.0 | 16.1 | 0.13 | 0.25 | 0.25 | 80 | 1007.5 |
| 20260505181638 | 11 | 278 | 4.8 | 16.1 | 0.05 | 0.25 | 0.25 | 81 | 1007.4 |
| 20260505181136 | 11 | 242 | 11.3 | 16.1 | 0.05 | 0.23 | 0.23 | 78 | 1007.2 |
| 20260505180632 | 11 | 256 | 8.0 | 16.1 | 0.05 | 0.23 | 0.23 | 80 | 1007.4 |
| 20260505180130 | 11 | 240 | 6.4 | 14.5 | 0.13 | 0.23 | 0.23 | 79 | 1007.5 |
| 20260505175625 | 11 | 226 | 6.4 | 11.3 | 0.23 | 0.23 | 0.23 | 81 | 1007.4 |
| 20260505175121 | 11 | 220 | 3.2 | 11.3 | 0.18 | 0.20 | 0.20 | 80 | 1007.2 |
| 20260505174613 | 12 | 253 | 14.5 | 14.5 | 0.13 | 0.18 | 0.18 | 80 | 1007.2 |
| 20260505174109 | 12 | 274 | 12.9 | 19.3 | 0.23 | 0.18 | 0.18 | 81 | 1007.6 |
| 20260505173606 | 12 | 265 | 9.7 | 19.3 | 0.18 | 0.15 | 0.15 | 83 | 1007.5 |
| 20260505173102 | 12 | 277 | 8.0 | 17.7 | 0.18 | 0.13 | 0.13 | 82 | 1007.5 |
| 20260505172600 | 12 | 248 | 12.9 | 16.1 | 0.18 | 0.10 | 0.10 | 82 | 1007.6 |
| 20260505172057 | 12 | 278 | 14.5 | 17.7 | 0.23 | 0.10 | 0.10 | 82 | 1007.5 |
| 20260505171556 | 13 | 283 | 14.5 | 17.7 | 0.30 | 0.08 | 0.08 | 81 | 1007.3 |
| 20260505171054 | 13 | 254 | 12.9 | 16.1 | 0.23 | 0.05 | 0.05 | 81 | 1007.4 |
| 20260505170551 | 13 | 302 | 9.7 | 20.9 | 0.05 | 0.00 | 0.00 | 79 | 1007.5 |
| 20260505170048 | 13 | 272 | 11.3 | 24.1 | 0.05 | 0.00 | 0.00 | 79 | 1007.7 |
| 20260505165543 | 14 | 266 | 9.7 | 27.4 | 0.00 | 0.00 | 0.00 | 78 | 1007.4 |
| 20260505165039 | 15 | 249 | 11.3 | 24.1 | 0.00 | 0.00 | 0.00 | 77 | 1007.5 |
| 20260505164535 | 15 | 262 | 27.4 | 29.0 | 0.00 | 0.00 | 0.00 | 75 | 1007.5 |
| 20260505164033 | 15 | 252 | 27.4 | 29.0 | 0.00 | 0.00 | 0.00 | 72 | 1007.5 |
| 20260505163531 | 15 | 267 | 27.4 | 35.4 | 0.00 | 0.00 | 0.00 | 72 | 1007.5 |
| 20260505163027 | 15 | 257 | 16.1 | 35.4 | 0.00 | 0.00 | 0.00 | 73 | 1007.5 |
| 20260505162521 | 15 | 242 | 11.3 | 27.4 | 0.00 | 0.00 | 0.00 | 72 | 1007.5 |
| 20260505162018 | 15 | 256 | 17.7 | 32.2 | 0.00 | 0.00 | 0.00 | 70 | 1007.7 |
| 20260505161514 | 15 | 256 | 27.4 | 40.2 | 0.00 | 0.00 | 0.00 | 69 | 1007.5 |
| 20260505161012 | 15 | 242 | 22.5 | 41.8 | 0.00 | 0.00 | 0.00 | 69 | 1007.4 |
| 20260505160510 | 15 | 257 | 32.2 | 38.6 | 0.00 | 0.00 | 0.00 | 69 | 1007.3 |
| 20260505152946 | 15 | 253 | 27.4 | 40.2 | 0.00 | 0.00 | 0.00 | 71 | 1007.3 |
| 20260505152443 | 15 | 276 | 19.3 | 27.4 | 0.00 | 0.00 | 0.00 | 71 | 1007.3 |
| 20260505151938 | 15 | 254 | 17.7 | 35.4 | 0.00 | 0.00 | 0.00 | 70 | 1007.1 |
| 20260505151433 | 15 | 249 | 35.4 | 51.5 | 0.00 | 0.00 | 0.00 | 69 | 1007.4 |
| 20260505150931 | 15 | 265 | 27.4 | 40.2 | 0.00 | 0.00 | 0.00 | 70 | 1007.1 |
| 20260505150427 | 16 | 252 | 37.0 | 48.3 | 0.00 | 0.00 | 0.00 | 70 | 1006.9 |
| 20260505140352 | 16 | 258 | 27.4 | 38.6 | 0.00 | 0.00 | 0.00 | 66 | 1005.1 |
| 20260505124806 | 15 | 245 | 8.0 | 29.0 | 0.00 | 0.00 | 0.00 | 69 | 1005.0 |
| 20260505124303 | 15 | 243 | 14.5 | 32.2 | 0.00 | 0.00 | 0.00 | 68 | 1005.1 |
| 20260505123758 | 15 | 223 | 24.1 | 29.0 | 0.00 | 0.00 | 0.00 | 68 | 1005.1 |
| 20260505123255 | 15 | 222 | 12.9 | 33.8 | 0.00 | 0.00 | 0.00 | 69 | 1005.5 |
| 20260505122751 | 15 | 255 | 45.1 | 45.1 | 0.00 | 0.00 | 0.00 | 69 | 1005.1 |
| 20260505122249 | 14 | 238 | 16.1 | 24.1 | 0.00 | 0.00 | 0.00 | 72 | 1005.2 |
| 20260505121745 | 14 | 239 | 14.5 | 27.4 | 0.00 | 0.00 | 0.00 | 72 | 1005.1 |
| 20260505121242 | 15 | 254 | 22.5 | 32.2 | 0.00 | 0.00 | 0.00 | 71 | 1004.9 |
| 20260505120738 | 15 | 232 | 14.5 | 30.6 | 0.00 | 0.00 | 0.00 | 71 | 1005.4 |
| 20260505120235 | 15 | 225 | 9.7 | 33.8 | 0.00 | 0.00 | 0.00 | 70 | 1005.0 |
| 20260505115733 | 15 | 245 | 17.7 | 29.0 | 0.00 | 0.00 | 0.00 | 70 | 1005.4 |
| 20260505115231 | 15 | 248 | 14.5 | 27.4 | 0.00 | 0.00 | 0.00 | 69 | 1004.9 |
| 20260505114728 | 15 | 221 | 16.1 | 29.0 | 0.00 | 0.00 | 0.00 | 69 | 1004.8 |
| 20260505114224 | 15 | 239 | 14.5 | 25.7 | 0.00 | 0.00 | 0.00 | 69 | 1004.6 |
| 20260505113721 | 15 | 215 | 9.7 | 19.3 | 0.00 | 0.00 | 0.00 | 68 | 1004.6 |
| 20260505113217 | 15 | 224 | 6.4 | 19.3 | 0.00 | 0.00 | 0.00 | 68 | 1004.4 |
| 20260505112713 | 15 | 224 | 12.9 | 14.5 | 0.00 | 0.00 | 0.00 | 68 | 1004.3 |
| 20260505112211 | 15 | 229 | 4.8 | 24.1 | 0.00 | 0.00 | 0.00 | 67 | 1004.1 |
| 20260505111706 | 15 | 230 | 6.4 | 25.7 | 0.00 | 0.00 | 0.00 | 67 | 1003.7 |
| 20260505111202 | 15 | 222 | 6.4 | 19.3 | 0.00 | 0.00 | 0.00 | 67 | 1003.7 |
| 20260505110658 | 15 | 215 | 11.3 | 17.7 | 0.00 | 0.00 | 0.00 | 66 | 1003.7 |
| 20260505110156 | 15 | 230 | 8.0 | 19.3 | 0.00 | 0.00 | 0.00 | 66 | 1003.4 |
| 20260505102131 | 15 | 224 | 6.4 | 14.5 | 0.00 | 0.00 | 0.00 | 70 | 1002.9 |
| 20260505101630 | 15 | 224 | 6.4 | 16.1 | 0.00 | 0.00 | 0.00 | 70 | 1003.0 |
| 20260505101125 | 15 | 229 | 6.4 | 16.1 | 0.00 | 0.00 | 0.00 | 69 | 1002.9 |
| 20260505100622 | 15 | 219 | 6.4 | 19.3 | 0.00 | 0.00 | 0.00 | 68 | 1002.6 |
| 20260505100119 | 15 | 212 | 11.3 | 24.1 | 0.00 | 0.00 | 0.00 | 69 | 1002.9 |
| 20260505095615 | 15 | 210 | 12.9 | 22.5 | 0.00 | 0.00 | 0.00 | 70 | 1002.8 |
| 20260505095112 | 15 | 212 | 12.9 | 32.2 | 0.00 | 0.00 | 0.00 | 71 | 1003.0 |
| 20260505094608 | 15 | 225 | 14.5 | 22.5 | 0.00 | 0.00 | 0.00 | 72 | 1003.1 |
| 20260505094104 | 15 | 204 | 6.4 | 24.1 | 0.00 | 0.00 | 0.00 | 72 | 1003.1 |
| 20260505093601 | 15 | 211 | 6.4 | 12.9 | 0.00 | 0.00 | 0.00 | 72 | 1003.1 |
| 20260505093058 | 15 | 191 | 3.2 | 17.7 | 0.00 | 0.00 | 0.00 | 71 | 1003.3 |
| 20260505092555 | 15 | 223 | 6.4 | 12.9 | 0.00 | 0.00 | 0.00 | 71 | 1003.2 |
| 20260505092054 | 15 | 200 | 14.5 | 22.5 | 0.00 | 0.00 | 0.00 | 71 | 1003.3 |
| 20260505091550 | 15 | 216 | 17.7 | 24.1 | 0.00 | 0.00 | 0.00 | 71 | 1003.0 |
| 20260505091049 | 15 | 216 | 16.1 | 30.6 | 0.00 | 0.00 | 0.00 | 71 | 1003.3 |
| 20260505090546 | 15 | 233 | 11.3 | 33.8 | 0.00 | 0.00 | 0.00 | 71 | 1003.3 |
| 20260505090044 | 15 | 230 | 11.3 | 29.0 | 0.00 | 0.00 | 0.00 | 70 | 1003.0 |
| 20260505085541 | 15 | 229 | 6.4 | 25.7 | 0.00 | 0.00 | 0.00 | 71 | 1002.8 |
| 20260505085040 | 15 | 227 | 9.7 | 27.4 | 0.00 | 0.00 | 0.00 | 71 | 1003.0 |
| 20260505084537 | 15 | 229 | 11.3 | 20.9 | 0.00 | 0.00 | 0.00 | 69 | 1002.8 |
| 20260505084035 | 15 | 243 | 6.4 | 17.7 | 0.00 | 0.00 | 0.00 | 70 | 1002.7 |
| 20260505083532 | 15 | 224 | 11.3 | 25.7 | 0.00 | 0.00 | 0.00 | 71 | 1002.7 |
| 20260505083029 | 15 | 223 | 11.3 | 20.9 | 0.00 | 0.00 | 0.00 | 72 | 1002.6 |
| 20260505082524 | 15 | 240 | 12.9 | 32.2 | 0.00 | 0.00 | 0.00 | 72 | 1002.6 |
| 20260505082021 | 15 | 236 | 14.5 | 32.2 | 0.00 | 0.00 | 0.00 | 71 | 1002.9 |
| 20260505081518 | 15 | 227 | 14.5 | 51.5 | 0.00 | 0.00 | 0.00 | 70 | 1002.8 |
| 20260505081015 | 16 | 235 | 12.9 | 48.3 | 0.00 | 0.00 | 0.00 | 64 | 1003.0 |
| 20260505080511 | 16 | 230 | 27.4 | 40.2 | 0.00 | 0.00 | 0.00 | 62 | 1002.8 |
| 20260505080008 | 17 | 233 | 16.1 | 38.6 | 0.00 | 0.00 | 0.00 | 62 | 1002.7 |
| 20260505075504 | 17 | 228 | 14.5 | 45.1 | 0.00 | 0.00 | 0.00 | 61 | 1002.8 |
| 20260505075001 | 17 | 234 | 14.5 | 48.3 | 0.00 | 0.00 | 0.00 | 60 | 1002.6 |
| 20260505074458 | 17 | 228 | 14.5 | 37.0 | 0.00 | 0.00 | 0.00 | 59 | 1002.8 |
| 20260505073955 | 17 | 228 | 9.7 | 27.4 | 0.00 | 0.00 | 0.00 | 59 | 1002.7 |
| 20260505073453 | 17 | 231 | 9.7 | 24.1 | 0.00 | 0.00 | 0.00 | 59 | 1002.4 |
| 20260505072950 | 17 | 214 | 19.3 | 46.7 | 0.00 | 0.00 | 0.00 | 59 | 1002.4 |
| 20260505072446 | 17 | 217 | 8.0 | 17.7 | 0.00 | 0.00 | 0.00 | 61 | 1002.4 |
| 20260505071942 | 17 | 216 | 12.9 | 20.9 | 0.00 | 0.00 | 0.00 | 61 | 1002.4 |
| 20260505071438 | 17 | 232 | 3.2 | 22.5 | 0.00 | 0.00 | 0.00 | 63 | 1002.1 |
| 20260505070937 | 17 | 206 | 9.7 | 25.7 | 0.00 | 0.00 | 0.00 | 61 | 1002.3 |
| 20260505070433 | 17 | 212 | 14.5 | 20.9 | 0.00 | 0.00 | 0.00 | 63 | 1002.5 |
| 20260505065929 | 16 | 206 | 4.8 | 12.9 | 0.00 | 0.00 | 0.00 | 64 | 1002.8 |
| 20260505065425 | 17 | 244 | 8.0 | 17.7 | 0.00 | 0.00 | 0.00 | 63 | 1003.0 |
| 20260505064922 | 17 | 252 | 14.5 | 24.1 | 0.00 | 0.00 | 0.00 | 62 | 1002.8 |
| 20260505064419 | 17 | 247 | 16.1 | 22.5 | 0.00 | 0.00 | 0.00 | 62 | 1002.7 |
| 20260505063918 | 17 | 263 | 14.5 | 20.9 | 0.00 | 0.00 | 0.00 | 62 | 1002.8 |
| 20260505063414 | 17 | 268 | 8.0 | 19.3 | 0.00 | 0.00 | 0.00 | 61 | 1002.5 |
| 20260505062910 | 17 | 258 | 11.3 | 17.7 | 0.00 | 0.00 | 0.00 | 61 | 1002.7 |
| 20260505062408 | 17 | 257 | 9.7 | 16.1 | 0.00 | 0.00 | 0.00 | 60 | 1002.8 |
| 20260505061904 | 18 | 261 | 11.3 | 14.5 | 0.00 | 0.00 | 0.00 | 59 | 1002.7 |
| 20260505061403 | 18 | 266 | 6.4 | 20.9 | 0.00 | 0.00 | 0.00 | 56 | 1002.6 |
| 20260505060900 | 18 | 271 | 11.3 | 25.7 | 0.00 | 0.00 | 0.00 | 55 | 1002.5 |
| 20260505060356 | 19 | 257 | 14.5 | 32.2 | 0.00 | 0.00 | 0.00 | 54 | 1002.8 |